Weather in Kirovskoye

Russia / Saratov Oblast     51°33′30″N   47°13′08″E
temp.,
°C
wind,
m/s
gust,
m/s
humid.,
%
clouds,
%
prec.,
mm/h
press.,
hPa
HPBL,
m
24 january, mon
mon2401:00−11ene4990100 0.0 1030158
04:00−11ene5990100 0.0 1030171
07:00−12ne51093100 0.0 1030170
10:00−11ene61292100 0.0 1031235
13:00−9ene5119193 0.0 1031308
16:00−9ene5109196 0.0 1031252
19:00−11ene51191100 0.0 1031209
22:00−12e4991100 0.0 1032173
25 january, tue
tue2501:00−14ene499266 0.0 1031125
04:00−15ene4794100 0.0 103093
07:00−16e4795100 0.0 102990
10:00−13e3893100 0.0 1029159
13:00−10e359394 0.0 1028167
16:00−8ene359697 0.0 1026153
19:00−13e229899 0.0 102525
22:00−13se2299100 0.0 102529
26 january, wed
wed2601:00−13ese1198100 0.1 102316
04:00−11e2297100 0.2 102232
07:00−10ene2297100 0.1 102033
10:00−8ne0095100 0.2 102053
13:00−7wnw1195100 1.3 1019158
16:00−7w2495100 1.9 1019252
19:00−8wsw2496100 0.1 102081
22:00−8sw2497100 0.4 102170
27 january, thu
thu2701:00−10ssw339867 0.0 102142
04:00−14ssw33100100 0.1 102138
07:00−14ssw22100100 0.1 102126
10:00−15w22100100 0.1 102225
13:00−10w1294100 0.0 102169
16:00−11nw1196100 0.0 102010
19:00−14nw1297100 0.0 102010
22:00−15nw2297100 0.0 102014
28 january, fri
fri2801:00−14nw339699 0.0 102045
04:00−19wnw2210090 0.0 101916
07:00−20wnw2210099 0.0 101913
10:00−19w1110099 0.0 102013
13:00−12wsw229665 0.0 101974
16:00−12s229752 0.0 101811
19:00−15s3410087 0.0 101839
22:00−14s4710097 0.0 101783